FW8600 Weather Reports


time (UTC)temp
F
wind
direction
speed
knots
gust
knots
rain 1hr
in
rain 24hr
in
rain mn
in
humidity
%
barometer
mb
20260906031536 72 0 0.9 2.6 0.00 0.00 0.00 95 1015.4
20260906030036 72 79 0.0 0.9 0.00 0.00 0.00 96 1015.3
20260906024541 72 0 0.0 0.9 0.00 0.00 0.00 97 1015.3
20260906023036 72 0 0.0 0.9 0.00 0.00 0.00 96 1015.0
20260906021537 73 96 0.9 4.3 0.00 0.00 0.00 95 1014.6
20260906020045 72 110 2.6 3.5 0.00 0.00 0.00 98 1014.6
20260906014550 72 0 0.0 0.0 0.00 0.00 0.00 97 1014.9
20260906013035 73 86 0.0 0.9 0.00 0.00 0.00 96 1014.6
20260906011541 73 0 0.0 0.9 0.00 0.00 0.00 95 1014.6
20260906010037 74 0 0.0 1.7 0.00 0.00 0.00 93 1014.4
20260906004541 74 0 0.0 0.9 0.00 0.00 0.00 93 1014.2
20260906003048 76 0 0.0 1.7 0.00 0.00 0.00 92 1013.9
20260906001537 76 0 0.0 0.0 0.00 0.00 0.00 91 1013.8
20260906000039 77 0 0.0 0.0 0.00 0.00 0.00 88 1013.6
20260905234536 79 0 0.0 0.0 0.00 0.00 0.00 85 1013.6
20260905233036 80 0 0.0 0.9 0.00 0.00 0.00 83 1013.6
20260905231539 82 0 0.0 0.9 0.00 0.00 0.00 80 1013.5
20260905230035 84 0 0.0 0.0 0.00 0.00 0.00 74 1013.3
20260905224535 85 0 0.0 0.9 0.00 0.00 0.00 72 1013.2
20260905223036 85 97 0.0 1.7 0.00 0.00 0.00 69 1013.1
20260905221538 86 0 0.0 3.5 0.00 0.00 0.00 66 1013.3
20260905220044 85 69 0.9 4.3 0.00 0.00 0.00 67 1013.3
20260905214534 85 71 0.9 4.3 0.00 0.00 0.00 68 1013.4
20260905213042 83 82 1.7 5.2 0.00 0.00 0.00 70 1013.5
20260905211542 83 79 1.7 7.8 0.00 0.00 0.00 70 1013.8
20260905210036 81 91 1.7 6.1 0.00 0.00 0.00 73 1013.9
20260905204538 79 88 1.7 3.5 0.00 0.00 0.00 77 1014.1
20260905203038 78 68 0.9 4.3 0.00 0.00 0.00 78 1014.2
20260905201543 77 77 0.9 6.1 0.00 0.00 0.00 80 1014.6
20260905200051 77 93 0.9 5.2 0.00 0.00 0.00 80 1014.8
20260905194545 77 79 0.0 3.5 0.00 0.00 0.00 79 1014.6
20260905193037 76 0 0.0 6.1 0.00 0.00 0.00 81 1014.7
20260905191537 76 71 0.0 0.9 0.00 0.00 0.00 84 1015.1
20260905190035 76 106 0.9 5.2 0.00 0.00 0.00 80 1014.8
20260905184543 76 101 1.7 10.4 0.00 0.00 0.00 82 1015.0
20260905183042 77 109 1.7 9.6 0.00 0.00 0.00 78 1014.9
20260905181538 82 94 0.9 4.3 0.00 0.00 0.00 71 1015.4
20260905180035 87 126 2.6 16.5 0.00 0.00 0.00 60 1015.0
20260905174538 93 74 0.9 5.2 0.00 0.00 0.00 58 1015.4
20260905173037 94 96 0.9 7.0 0.00 0.00 0.00 57 1015.5
20260905171537 94 112 1.7 5.2 0.00 0.00 0.00 57 1015.7
20260905170046 94 247 1.7 5.2 0.00 0.00 0.00 56 1015.4
20260905164539 92 75 0.9 5.2 0.00 0.00 0.00 59 1015.7
20260905163036 92 0 0.9 5.2 0.00 0.00 0.00 59 1015.9
20260905161536 92 103 1.7 4.3 0.00 0.00 0.00 59 1016.2
20260905160043 91 122 0.9 2.6 0.00 0.00 0.00 64 1016.3
20260905154535 89 285 0.9 3.5 0.00 0.00 0.00 70 1016.3
20260905153039 90 341 0.0 2.6 0.00 0.00 0.00 67 1016.2
20260905151541 89 47 0.9 3.5 0.00 0.00 0.00 66 1016.1
20260905150039 91 321 0.0 3.5 0.00 0.00 0.00 65 1016.0
20260905144546 89 68 0.0 1.7 0.00 0.00 0.00 66 1015.9
20260905143048 87 0 0.9 2.6 0.00 0.00 0.00 68 1016.0
20260905141538 85 88 0.9 2.6 0.00 0.00 0.00 73 1016.3
20260905140038 82 0 0.9 2.6 0.00 0.00 0.00 77 1016.2
20260905134535 81 80 0.9 5.2 0.00 0.00 0.00 81 1016.3
20260905133036 80 95 0.9 1.7 0.00 0.00 0.00 81 1016.4
20260905131547 79 100 0.9 4.3 0.00 0.00 0.00 84 1016.4
20260905130036 76 87 0.0 4.3 0.00 0.00 0.00 89 1016.7
20260905124541 75 68 0.9 3.5 0.00 0.00 0.00 91 1016.6
20260905123035 74 0 0.0 0.9 0.00 0.00 0.00 94 1016.4
20260905121535 72 0 0.0 0.0 0.00 0.00 0.00 99 1016.5
20260905120038 71 0 0.0 0.0 0.00 0.00 0.00 100 1016.5
20260905114544 69 82 0.0 0.9 0.00 0.00 0.00 100 1016.3
20260905113039 69 0 0.0 0.9 0.00 0.00 0.00 100 1016.0
20260905111542 69 0 0.0 0.9 0.00 0.00 0.00 100 1015.9
20260905110036 69 0 0.0 0.9 0.00 0.00 0.00 100 1015.5
20260905104535 69 0 0.0 0.0 0.00 0.00 0.00 100 1015.5
20260905103036 69 0 0.0 0.0 0.00 0.00 0.00 100 1015.2
20260905101543 69 0 0.0 0.9 0.00 0.00 0.00 100 1015.3
20260905100035 69 0 0.0 0.0 0.00 0.00 0.00 99 1015.2
20260905094536 69 0 0.0 0.9 0.00 0.00 0.00 99 1015.1
20260905093040 70 0 0.0 0.0 0.00 0.00 0.00 99 1015.3
20260905091535 70 0 0.0 0.0 0.00 0.00 0.00 99 1015.3
20260905090037 70 0 0.0 0.9 0.00 0.00 0.00 99 1015.3
20260905084541 70 0 0.0 0.9 0.00 0.00 0.00 99 1015.3
20260905083039 70 0 0.0 0.9 0.00 0.00 0.00 99 1015.6
20260905081538 70 0 0.0 0.9 0.00 0.00 0.00 99 1015.7
20260905080043 71 0 0.0 0.0 0.00 0.00 0.00 98 1016.0
20260905074537 71 0 0.0 0.9 0.00 0.00 0.00 98 1016.0
20260905073037 71 0 0.0 1.7 0.00 0.00 0.00 98 1016.0
20260905071538 71 63 0.0 0.9 0.00 0.00 0.00 98 1016.1
20260905070038 72 0 0.0 0.0 0.00 0.00 0.00 98 1016.2
20260905064544 72 0 0.0 0.0 0.00 0.00 0.00 98 1016.5
20260905063047 72 0 0.0 0.9 0.00 0.00 0.00 98 1016.6
20260905061540 72 0 0.0 0.0 0.00 0.00 0.00 98 1016.6
20260905060039 72 0 0.0 0.9 0.00 0.00 0.00 98 1016.9
20260905054537 72 0 0.0 0.9 0.00 0.00 0.00 98 1017.1
20260905053036 73 0 0.0 0.0 0.00 0.00 0.00 98 1017.2
20260905051538 73 0 0.0 0.0 0.00 0.00 0.00 97 1017.1
20260905050039 73 0 0.0 0.0 0.00 0.00 0.00 97 1017.1
20260905044539 73 0 0.0 0.0 0.00 0.00 0.00 97 1017.1
20260905043037 74 0 0.0 0.9 0.00 0.00 0.00 96 1017.1
20260905041536 74 0 0.0 0.9 0.00 0.00 0.00 95 1017.1
20260905040036 75 0 0.0 0.0 0.00 0.00 0.00 94 1017.0
20260905034536 75 0 0.0 0.9 0.00 0.00 0.00 94 1017.1
20260905033038 76 63 0.0 0.9 0.00 0.00 0.00 92 1017.0